Regional Weather Roundup
Issued by NWS Charleston, SC

Current Version | Previous Version | Graphics & Text | Print | Product List | Glossary On
Versions: 1 2 3 4 5 6 7 8 9 10 11 12 13 14 15 16 17 18 19 20 21 22 23 24 25 26 27 28 29 30 31 32 33 34 35 36 37 38 39 40 41 42 43 44 45 46 47 48 49 50
000
ASUS42 KCHS 200310
RWRCHS

REGIONAL WEATHER ROUNDUP
NATIONAL WEATHER SERVICE CHARLESTON SC
1100 PM EDT TUE AUG 19 2014

NOTE: "FAIR" INDICATES FEW OR NO CLOUDS BELOW 12,000 FEET WITH NO
SIGNIFICANT WEATHER AND/OR OBSTRUCTIONS TO VISIBILITY.

NOT ALL STATIONS ARE QUALITY CONTROLLED BY THE NATIONAL
WEATHER SERVICE. USE DATA WITH CAUTION...ESPECIALLY
DEWPOINT OBSERVATIONS.

SCZ027-030-031-034>040-042>050-200400-
...SOUTH CAROLINA...

CITY           SKY/WX    TMP DP  RH WIND       PRES   REMARKS
N CHARLESTON   PTCLDY    80  74  81 SW8       29.92R
WATERFRONT PRK   N/A     81 N/A N/A SW6         N/A
FORT JOHNSON   NOT AVBL
MOUNT PLEASANT FAIR      81  75  83 W6        29.91R
JOHNS ISLAND   CLEAR     79  77  94 CALM      29.92R
PINOPOLIS        N/A     82  75  78 SW5G12    29.81R
MONCKS CORNER  NOT AVBL
SUMMERVILLE    FAIR      77  77 100 CALM      29.92R
BEAUFORT MCAS  CLOUDY    80  73  79 W12       29.92R
BEAUFORT ARPT  FAIR      81  73  78 SW8       29.92R
HILTON HEAD IS MOCLDY    81  75  83 SW8       29.93S
GEORGETOWN     NOT AVBL
WALTERBORO     MOCLDY    79  79 100 SW5       29.93R
ORANGEBURG     MOCLDY    76  71  85 SW6       29.91R
BARNWELL       FAIR      75  72  88 SW5       29.93R
AIKEN          FAIR      77  73  88 CALM      29.95S
MANNING        FAIR      79 N/A N/A SW5       29.90R
KINGSTREE      NOT AVBL
COLUMBIA       MOCLDY    77  71  82 CALM      29.89R
SUMTER         MOCLDY    77  74  88 S5        29.87R
FLORENCE       MOCLDY    78  74  87 E3        29.88R
MYRTLE BEACH   PTCLDY    79  73  83 CALM      29.89R
N MYRTLE BEACH CLOUDY    77  75  93 CALM      29.88R

$$

GAZ063-065-086>088-099>101-113>116-118-119-134-136>141-150-200400-
...GEORGIA...

CITY           SKY/WX    TMP DP  RH WIND       PRES   REMARKS
SAVANNAH ARPT  MOCLDY    77  70  79 SW9       29.94R
HUNTER AAF     MOCLDY    77  71  82 SW10      29.92R
FORT STEWART   PTCLDY    75  69  81 SW6       29.93R
STATESBORO     NOT AVBL
SYLVANIA       CLOUDY    76  75  97 SW3       29.93R
CLAXTON        FAIR      77  75  94 CALM      29.94R
THOMSON        MOCLDY    77  76  96 CALM      29.96R
AUGUSTA-BUSH   CLOUDY    75  71  87 CALM      29.90R
AUGUSTA-DANIEL CLOUDY    78  71  79 W3        29.92R
SWAINSBORO     FAIR      75  75 100 W3        29.95R
VIDALIA          N/A     73  72  94 W3        29.94S
ALMA           CLEAR     72  70  93 CALM      29.95S
WAYCROSS       CLEAR     77  73  85 CALM      29.96S
JESUP            N/A     77  72  83 CALM      29.96R
BRUNSWICK      NOT AVBL
SAINT SIMONS   PTCLDY    77  69  76 SW6       29.97R

$$

SCZ027-028-034-036>038-045-046-048>050-GAZ119-141-200400-
...LAKE AND SUPPLEMENTAL COASTAL OBSERVATIONS...

STATION/POSITION TIME  TEMP    WIND        PRES    WAVE   SWELL
                       AIR SEA DIR/SP/G            HT/PER HT/PER/DIR
                 (UTC) (F)     (DEG/KT/KT) (MB)    (FT/S) (FT/S/D)
UPR LAKE MARION  NOT AVBL
WINYAH BAY       0200   79     260/  1     1011.0S
LAKE MURRAY      0200   79     200/  1/  2 1011.2R
ACE BASIN NERRS  0200   79        CALM     1012.0S
FORT PULASKI     0300   79     250/  9/ 12 1013.6R
SAPELO ISLAND    0200   79     240/  9     1014.0S

$$

ANZ835-935-AMZ111-154-330-350-352-354-374-450-454-472-200400-
...C-MAN AND BUOY OBSERVATIONS...

STATION/POSITION TIME  TEMP    WIND        PRES    WAVE   SWELL
                       AIR SEA DIR/SP/G            HT/PER HT/PER/DIR
                 (UTC) (F)     (DEG/KT/KT) (MB)    (FT/S) (FT/S/D)
FOLLY BEACH CMAN 0300   79     240/  5/  6 1013.6R
BUOY 41004       0300   83 83  240/ 14/ 17 1012.2R   4/ 6   2/ 8
BUOY 41008       0300   82 85  260/ 16/ 17 1014.1R   2/ 3
5E ST. MARYS GA  0300      81                N/A     1/ 2
FRYING PAN BUOY  NOT AVBL
BUOY 41025       0300   80     230/ 12/ 12 1010.9F   3/ 7   2/190/ 7
CAPE LOOKOUT NC  0300   80     280/ 11/ 13 1011.0S
BUOY 41002       0241   82 81  240/ 17/ 21 1014.6R
BUOY 41010       0300   84 86  180/ 10/ 14 1016.4R   3/ 6   2/ 40/ 6
BUOY 41012       NOT AVBL
ST AUGUSTINE FL  0300   82     230/  4/  6 1015.8R
CAPERS NEARSHORE 0200   82     270/ 16/ 17   N/A
FRIPP NEARSHORE  NOT AVBL


$$


USA.gov is the U.S. government's official web portal to all federal, state and local government web resources and services.